Year,Month,Day,Hour,Minute,Value (Times are PST for temperature in C)
2010,04,19,00,00,10.10
2010,04,19,00,01,10.10
2010,04,19,00,02,10.10
2010,04,19,00,03,10.10
2010,04,19,00,04,10.10
2010,04,19,00,05,10.10
2010,04,19,00,06,10.10
2010,04,19,00,07,10.10
2010,04,19,00,08,10.10
2010,04,19,00,09,10.10
2010,04,19,00,10,10.10
2010,04,19,00,11,9.90
2010,04,19,00,12,9.90
2010,04,19,00,13,9.90
2010,04,19,00,14,9.90
2010,04,19,00,15,9.90
2010,04,19,00,16,9.90
2010,04,19,00,17,9.90
2010,04,19,00,18,9.90
2010,04,19,00,19,9.90
2010,04,19,00,20,9.90
2010,04,19,00,21,9.90
2010,04,19,00,22,9.90
2010,04,19,00,23,9.90
2010,04,19,00,24,9.90
2010,04,19,00,25,9.90
2010,04,19,00,26,9.90
2010,04,19,00,27,9.90
2010,04,19,00,28,9.90
2010,04,19,00,29,9.90
2010,04,19,00,30,9.90
2010,04,19,00,31,9.90
2010,04,19,00,32,9.90
2010,04,19,00,33,9.90
2010,04,19,00,34,9.90
2010,04,19,00,35,9.90
2010,04,19,00,36,9.90
2010,04,19,00,37,9.90
2010,04,19,00,38,9.90
2010,04,19,00,39,9.90
2010,04,19,00,40,9.90
2010,04,19,00,41,9.90
2010,04,19,00,42,9.90
2010,04,19,00,43,9.90
2010,04,19,00,44,9.90
2010,04,19,00,45,9.90
2010,04,19,00,46,9.90
2010,04,19,00,47,9.90
2010,04,19,00,48,9.90
2010,04,19,00,49,9.90
2010,04,19,00,50,9.90
2010,04,19,00,51,9.90
2010,04,19,00,52,9.90
2010,04,19,00,53,9.90
2010,04,19,00,54,9.90
2010,04,19,00,55,9.90
2010,04,19,00,56,10.00
2010,04,19,00,57,10.10
2010,04,19,00,58,10.10
2010,04,19,00,59,10.10
2010,04,19,01,00,10.10
2010,04,19,01,01,10.20
2010,04,19,01,02,10.20
2010,04,19,01,03,10.20
2010,04,19,01,04,10.30
2010,04,19,01,05,10.30
2010,04,19,01,06,10.40
2010,04,19,01,07,10.40
2010,04,19,01,08,10.40
2010,04,19,01,09,10.40
2010,04,19,01,10,10.40
2010,04,19,01,11,10.60
2010,04,19,01,12,10.60
2010,04,19,01,13,10.60
2010,04,19,01,14,10.60
2010,04,19,01,15,10.60
2010,04,19,01,16,10.60
2010,04,19,01,17,10.60
2010,04,19,01,18,10.70
2010,04,19,01,19,10.70
2010,04,19,01,20,10.70
2010,04,19,01,21,10.70
2010,04,19,01,22,10.80
2010,04,19,01,23,10.80
2010,04,19,01,24,10.80
2010,04,19,01,25,10.80
2010,04,19,01,26,10.80
2010,04,19,01,27,10.80
2010,04,19,01,28,10.80
2010,04,19,01,29,10.80
2010,04,19,01,30,10.80
2010,04,19,01,31,10.80
2010,04,19,01,32,10.80
2010,04,19,01,33,10.80
2010,04,19,01,34,10.90
2010,04,19,01,35,10.90
2010,04,19,01,36,10.90
2010,04,19,01,37,10.90
2010,04,19,01,38,10.90
2010,04,19,01,39,10.90
2010,04,19,01,40,10.90
2010,04,19,01,41,10.90
2010,04,19,01,42,10.90
2010,04,19,01,43,10.90
2010,04,19,01,44,10.90
2010,04,19,01,45,10.90
2010,04,19,01,46,11.00
2010,04,19,01,47,11.10
2010,04,19,01,48,11.10
2010,04,19,01,49,11.00
2010,04,19,01,50,10.90
2010,04,19,01,51,10.90
2010,04,19,01,52,10.90
2010,04,19,01,53,10.90
2010,04,19,01,54,10.90
2010,04,19,01,55,10.90
2010,04,19,01,56,10.90
2010,04,19,01,57,10.90
2010,04,19,01,58,10.90
2010,04,19,01,59,10.90
2010,04,19,02,00,10.90
2010,04,19,02,01,10.90
2010,04,19,02,02,10.90
2010,04,19,02,03,10.90
2010,04,19,02,04,10.90
2010,04,19,02,05,10.90
2010,04,19,02,06,10.90
2010,04,19,02,07,10.90
2010,04,19,02,08,10.90
2010,04,19,02,09,10.90
2010,04,19,02,10,10.90
2010,04,19,02,11,10.90
2010,04,19,02,12,10.90
2010,04,19,02,13,10.90
2010,04,19,02,14,10.90
2010,04,19,02,15,10.90
2010,04,19,02,16,10.90
2010,04,19,02,17,10.90
2010,04,19,02,18,10.90
2010,04,19,02,19,10.90
2010,04,19,02,20,10.90
2010,04,19,02,21,10.90
2010,04,19,02,22,10.90
2010,04,19,02,23,10.80
2010,04,19,02,24,10.80
2010,04,19,02,25,10.80
2010,04,19,02,26,10.80
2010,04,19,02,27,10.80
2010,04,19,02,28,10.80
2010,04,19,02,29,10.70
2010,04,19,02,30,10.70
2010,04,19,02,31,10.70
2010,04,19,02,32,10.70
2010,04,19,02,33,10.80
2010,04,19,02,34,10.80
2010,04,19,02,35,10.80
2010,04,19,02,36,10.80
2010,04,19,02,37,10.80
2010,04,19,02,38,10.80
2010,04,19,02,39,10.80
2010,04,19,02,40,10.80
2010,04,19,02,41,10.80
2010,04,19,02,42,10.80
2010,04,19,02,43,10.70
2010,04,19,02,44,10.70
2010,04,19,02,45,10.70
2010,04,19,02,46,10.70
2010,04,19,02,47,10.70
2010,04,19,02,48,10.70
2010,04,19,02,49,10.70
2010,04,19,02,50,10.70
2010,04,19,02,51,10.70
2010,04,19,02,52,10.70
2010,04,19,02,53,10.70
2010,04,19,02,54,10.70
2010,04,19,02,55,10.70
2010,04,19,02,56,10.70
2010,04,19,02,57,10.70
2010,04,19,02,58,10.70
2010,04,19,02,59,10.70
2010,04,19,03,00,10.80
2010,04,19,03,01,10.80
2010,04,19,03,02,10.70
2010,04,19,03,06,10.70
2010,04,19,03,07,10.70
2010,04,19,03,08,10.60
2010,04,19,03,09,10.60
2010,04,19,03,10,10.60
2010,04,19,03,11,10.60
2010,04,19,03,12,10.60
2010,04,19,03,13,10.60
2010,04,19,03,14,10.60
2010,04,19,03,15,10.60
2010,04,19,03,16,10.50
2010,04,19,03,17,10.40
2010,04,19,03,18,10.40
2010,04,19,03,19,10.40
2010,04,19,03,20,10.40
2010,04,19,03,21,10.40
2010,04,19,03,22,10.40
2010,04,19,03,23,10.40
2010,04,19,03,24,10.40
2010,04,19,03,25,10.40
2010,04,19,03,26,10.40
2010,04,19,03,27,10.40
2010,04,19,03,28,10.40
2010,04,19,03,29,10.40
2010,04,19,03,30,10.40
2010,04,19,03,31,10.40
2010,04,19,03,32,10.40
2010,04,19,03,33,10.40
2010,04,19,03,34,10.40
2010,04,19,03,35,10.40
2010,04,19,03,36,10.40
2010,04,19,03,37,10.40
2010,04,19,03,38,10.40
2010,04,19,03,39,10.40
2010,04,19,03,40,10.40
2010,04,19,03,41,10.40
2010,04,19,03,42,10.40
2010,04,19,03,43,10.30
2010,04,19,03,44,10.30
2010,04,19,03,45,10.30
2010,04,19,03,46,10.20
2010,04,19,03,47,10.20
2010,04,19,03,48,10.20
2010,04,19,03,49,10.10
2010,04,19,03,50,10.10
2010,04,19,03,51,10.10
2010,04,19,03,52,10.10
2010,04,19,03,53,10.10
2010,04,19,03,54,10.00
2010,04,19,03,55,9.90
2010,04,19,03,56,9.90
2010,04,19,03,57,9.90
2010,04,19,03,58,9.90
2010,04,19,03,59,9.90
2010,04,19,04,00,9.90
2010,04,19,04,01,9.90
2010,04,19,04,02,9.90
2010,04,19,04,03,9.90
2010,04,19,04,04,9.80
2010,04,19,04,05,9.80
2010,04,19,04,06,9.80
2010,04,19,04,07,9.80
2010,04,19,04,08,9.80
2010,04,19,04,09,9.80
2010,04,19,04,10,9.70
2010,04,19,04,11,9.70
2010,04,19,04,12,9.70
2010,04,19,04,13,9.70
2010,04,19,04,14,9.70
2010,04,19,04,15,9.70
2010,04,19,04,16,9.70
2010,04,19,04,17,9.70
2010,04,19,04,18,9.70
2010,04,19,04,19,9.70
2010,04,19,04,20,9.70
2010,04,19,04,21,9.70
2010,04,19,04,22,9.70
2010,04,19,04,23,9.70
2010,04,19,04,24,9.70
2010,04,19,04,25,9.70
2010,04,19,04,26,9.70
2010,04,19,04,27,9.70
2010,04,19,04,28,9.70
2010,04,19,04,29,9.70
2010,04,19,04,30,9.70
2010,04,19,04,31,9.70
2010,04,19,04,32,9.70
2010,04,19,04,33,9.70
2010,04,19,04,34,9.70
2010,04,19,04,35,9.70
2010,04,19,04,36,9.70
2010,04,19,04,37,9.70
2010,04,19,04,38,9.70
2010,04,19,04,39,9.70
2010,04,19,04,40,9.70
2010,04,19,04,41,9.70
2010,04,19,04,42,9.70
2010,04,19,04,43,9.70
2010,04,19,04,44,9.70
2010,04,19,04,45,9.70
2010,04,19,04,46,9.70
2010,04,19,04,47,9.70
2010,04,19,04,48,9.70
2010,04,19,04,49,9.70
2010,04,19,04,50,9.70
2010,04,19,04,51,9.70
2010,04,19,04,52,9.70
2010,04,19,04,53,9.70
2010,04,19,04,54,9.70
2010,04,19,04,55,9.70
2010,04,19,04,56,9.70
2010,04,19,04,57,9.70
2010,04,19,04,58,9.70
2010,04,19,04,59,9.70
2010,04,19,05,00,9.70
2010,04,19,05,01,9.70
2010,04,19,05,02,9.70
2010,04,19,05,03,9.70
2010,04,19,05,04,9.70
2010,04,19,05,05,9.70
2010,04,19,05,06,9.70
2010,04,19,05,07,9.70
2010,04,19,05,08,9.70
2010,04,19,05,09,9.70
2010,04,19,05,10,9.70
2010,04,19,05,11,9.70
2010,04,19,05,12,9.70
2010,04,19,05,13,9.70
2010,04,19,05,14,9.70
2010,04,19,05,15,9.70
2010,04,19,05,16,9.70
2010,04,19,05,17,9.70
2010,04,19,05,18,9.70
2010,04,19,05,19,9.70
2010,04,19,05,20,9.70
2010,04,19,05,21,9.70
2010,04,19,05,22,9.60
2010,04,19,05,23,9.60
2010,04,19,05,24,9.60
2010,04,19,05,25,9.60
2010,04,19,05,26,9.60
2010,04,19,05,27,9.60
2010,04,19,05,28,9.60
2010,04,19,05,29,9.60
2010,04,19,05,30,9.60
2010,04,19,05,31,9.60
2010,04,19,05,32,9.60
2010,04,19,05,33,9.60
2010,04,19,05,34,9.60
2010,04,19,05,35,9.60
2010,04,19,05,36,9.60
2010,04,19,05,37,9.60
2010,04,19,05,38,9.60
2010,04,19,05,39,9.60
2010,04,19,05,40,9.60
2010,04,19,05,41,9.60
2010,04,19,05,42,9.60
2010,04,19,05,43,9.50
2010,04,19,05,44,9.50
2010,04,19,05,45,9.50
2010,04,19,05,46,9.50
2010,04,19,05,47,9.50
2010,04,19,05,48,9.50
2010,04,19,05,49,9.50
2010,04,19,05,50,9.50
2010,04,19,05,51,9.50
2010,04,19,05,52,9.50
2010,04,19,05,53,9.50
2010,04,19,05,54,9.50
2010,04,19,05,55,9.40
2010,04,19,05,56,9.40
2010,04,19,05,57,9.40
2010,04,19,05,58,9.40
2010,04,19,05,59,9.40
2010,04,19,06,00,9.40
2010,04,19,06,01,9.40
2010,04,19,06,02,9.40
2010,04,19,06,03,9.40
2010,04,19,06,04,9.40
2010,04,19,06,05,9.40
2010,04,19,06,06,9.30
2010,04,19,06,07,9.30
2010,04,19,06,08,9.30
2010,04,19,06,09,9.30
2010,04,19,06,10,9.30
2010,04,19,06,11,9.30
2010,04,19,06,12,9.30
2010,04,19,06,13,9.20
2010,04,19,06,14,9.20
2010,04,19,06,15,9.20
2010,04,19,06,16,9.20
2010,04,19,06,17,9.20
2010,04,19,06,18,9.20
2010,04,19,06,19,9.30
2010,04,19,06,20,9.30
2010,04,19,06,21,9.30
2010,04,19,06,22,9.30
2010,04,19,06,23,9.30
2010,04,19,06,24,9.30
2010,04,19,06,25,9.30
2010,04,19,06,26,9.30
2010,04,19,06,27,9.30
2010,04,19,06,28,9.30
2010,04,19,06,29,9.30
2010,04,19,06,30,9.30
2010,04,19,06,31,9.30
2010,04,19,06,32,9.30
2010,04,19,06,33,9.30
2010,04,19,06,34,9.30
2010,04,19,06,35,9.30
2010,04,19,06,36,9.30
2010,04,19,06,37,9.30
2010,04,19,06,38,9.30
2010,04,19,06,39,9.30
2010,04,19,06,40,9.30
2010,04,19,06,41,9.30
2010,04,19,06,42,9.30
2010,04,19,06,43,9.30
2010,04,19,06,44,9.40
2010,04,19,06,45,9.40
2010,04,19,06,46,9.40
2010,04,19,06,47,9.40
2010,04,19,06,48,9.40
2010,04,19,06,49,9.40
2010,04,19,06,50,9.40
2010,04,19,06,51,9.40
2010,04,19,06,52,9.40
2010,04,19,06,53,9.40
2010,04,19,06,54,9.40
2010,04,19,06,55,9.40
2010,04,19,06,56,9.50
2010,04,19,06,57,9.50
2010,04,19,06,58,9.50
2010,04,19,06,59,9.50
2010,04,19,07,00,9.50
2010,04,19,07,01,9.50
2010,04,19,07,02,9.50
2010,04,19,07,03,9.50
2010,04,19,07,04,9.50
2010,04,19,07,05,9.60
2010,04,19,07,06,9.60
2010,04,19,07,07,9.60
2010,04,19,07,08,9.60
2010,04,19,07,09,9.60
2010,04,19,07,10,9.60
2010,04,19,07,11,9.60
2010,04,19,07,12,9.60
2010,04,19,07,13,9.60
2010,04,19,07,14,9.60
2010,04,19,07,15,9.60
2010,04,19,07,16,9.60
2010,04,19,07,17,9.60
2010,04,19,07,18,9.70
2010,04,19,07,19,9.70
2010,04,19,07,20,9.70
2010,04,19,07,21,9.70
2010,04,19,07,22,9.70
2010,04,19,07,23,9.70
2010,04,19,07,24,9.70
2010,04,19,07,25,9.70
2010,04,19,07,26,9.70
2010,04,19,07,27,9.70
2010,04,19,07,28,9.80
2010,04,19,07,29,9.80
2010,04,19,07,30,9.80
2010,04,19,07,31,9.80
2010,04,19,07,32,9.80
2010,04,19,07,33,9.80
2010,04,19,07,34,9.80
2010,04,19,07,35,9.80
2010,04,19,07,36,9.90
2010,04,19,07,37,9.90
2010,04,19,07,38,9.90
2010,04,19,07,39,9.90
2010,04,19,07,40,9.90
2010,04,19,07,41,9.90
2010,04,19,07,42,9.90
2010,04,19,07,43,9.90
2010,04,19,07,44,9.90
2010,04,19,07,45,9.90
2010,04,19,07,46,9.90
2010,04,19,07,47,9.90
2010,04,19,07,48,9.90
2010,04,19,07,49,9.90
2010,04,19,07,50,9.90
2010,04,19,07,51,9.90
2010,04,19,07,52,9.90
2010,04,19,07,53,9.90
2010,04,19,07,54,9.90
2010,04,19,07,55,9.90
2010,04,19,07,56,9.90
2010,04,19,07,57,9.90
2010,04,19,07,58,9.90
2010,04,19,07,59,9.90
2010,04,19,08,00,9.90
2010,04,19,08,01,9.90
2010,04,19,08,02,9.90
2010,04,19,08,03,9.90
2010,04,19,08,04,9.90
2010,04,19,08,05,9.90
2010,04,19,08,06,9.90
2010,04,19,08,07,9.90
2010,04,19,08,08,9.90
2010,04,19,08,09,9.90
2010,04,19,08,10,10.00
2010,04,19,08,11,10.10
2010,04,19,08,12,10.10
2010,04,19,08,13,10.10
2010,04,19,08,14,10.10
2010,04,19,08,15,10.10
2010,04,19,08,16,10.10
2010,04,19,08,17,10.10
2010,04,19,08,18,10.10
2010,04,19,08,19,10.10
2010,04,19,08,20,10.10
2010,04,19,08,21,10.20
2010,04,19,08,22,10.20
2010,04,19,08,23,10.20
2010,04,19,08,24,10.20
2010,04,19,08,25,10.20
2010,04,19,08,26,10.30
2010,04,19,08,27,10.30
2010,04,19,08,28,10.30
2010,04,19,08,29,10.30
2010,04,19,08,30,10.30
2010,04,19,08,31,10.30
2010,04,19,08,32,10.30
2010,04,19,08,33,10.30
2010,04,19,08,34,10.30
2010,04,19,08,35,10.40
2010,04,19,08,36,10.40
2010,04,19,08,37,10.40
2010,04,19,08,38,10.40
2010,04,19,08,39,10.40
2010,04,19,08,40,10.40
2010,04,19,08,41,10.40
2010,04,19,08,42,10.40
2010,04,19,08,43,10.40
2010,04,19,08,44,10.40
2010,04,19,08,45,10.40
2010,04,19,08,46,10.40
2010,04,19,08,47,10.40
2010,04,19,08,48,10.50
2010,04,19,08,49,10.60
2010,04,19,08,50,10.60
2010,04,19,08,51,10.60
2010,04,19,08,52,10.60
2010,04,19,08,53,10.60
2010,04,19,08,54,10.60
2010,04,19,08,55,10.60
2010,04,19,08,56,10.60
2010,04,19,08,57,10.60
2010,04,19,08,58,10.60
2010,04,19,08,59,10.60
2010,04,19,09,00,10.60
2010,04,19,09,01,10.70
2010,04,19,09,02,10.70
2010,04,19,09,03,10.70
2010,04,19,09,04,10.70
2010,04,19,09,05,10.70
2010,04,19,09,06,10.70
2010,04,19,09,07,10.70
2010,04,19,09,08,10.70
2010,04,19,09,09,10.80
2010,04,19,09,10,10.80
2010,04,19,09,11,10.80
2010,04,19,09,12,10.80
2010,04,19,09,13,10.80
2010,04,19,09,14,10.80
2010,04,19,09,15,10.80
2010,04,19,09,16,10.80
2010,04,19,09,17,10.80
2010,04,19,09,18,10.80
2010,04,19,09,19,10.90
2010,04,19,09,20,10.90
2010,04,19,09,21,10.90
2010,04,19,09,22,10.90
2010,04,19,09,23,10.90
2010,04,19,09,24,10.90
2010,04,19,09,25,10.90
2010,04,19,09,26,10.90
2010,04,19,09,27,10.90
2010,04,19,09,28,11.00
2010,04,19,09,29,11.10
2010,04,19,09,30,11.10
2010,04,19,09,31,11.10
2010,04,19,09,32,11.10
2010,04,19,09,33,11.10
2010,04,19,09,34,11.10
2010,04,19,09,35,11.10
2010,04,19,09,36,11.10
2010,04,19,09,37,11.10
2010,04,19,09,38,11.10
2010,04,19,09,39,11.10
2010,04,19,09,40,11.20
2010,04,19,09,41,11.20
2010,04,19,09,42,11.20
2010,04,19,09,43,11.20
2010,04,19,09,44,11.30
2010,04,19,09,45,11.30
2010,04,19,09,46,11.30
2010,04,19,09,47,11.30
2010,04,19,09,48,11.40
2010,04,19,09,49,11.40
2010,04,19,09,50,11.40
2010,04,19,09,51,11.40
2010,04,19,09,52,11.40
2010,04,19,09,53,11.40
2010,04,19,09,54,11.50
2010,04,19,09,55,11.60
2010,04,19,09,56,11.60
2010,04,19,09,57,11.60
2010,04,19,09,58,11.60
2010,04,19,09,59,11.70
2010,04,19,10,00,11.70
2010,04,19,10,01,11.80
2010,04,19,10,02,11.80
2010,04,19,10,03,11.80
2010,04,19,10,04,11.80
2010,04,19,10,05,11.80
2010,04,19,10,06,11.80
2010,04,19,10,07,11.90
2010,04,19,10,08,11.90
2010,04,19,10,09,11.90
2010,04,19,10,10,12.00
2010,04,19,10,11,12.00
2010,04,19,10,12,12.00
2010,04,19,10,13,12.10
2010,04,19,10,14,12.10
2010,04,19,10,15,12.10
2010,04,19,10,16,12.20
2010,04,19,10,17,12.30
2010,04,19,10,18,12.40
2010,04,19,10,19,12.40
2010,04,19,10,20,12.50
2010,04,19,10,21,12.50
2010,04,19,10,22,12.60
2010,04,19,10,23,12.70
2010,04,19,10,24,12.70
2010,04,19,10,25,12.80
2010,04,19,10,26,12.80
2010,04,19,10,27,12.90
2010,04,19,10,28,13.00
2010,04,19,10,29,13.10
2010,04,19,10,30,13.20
2010,04,19,10,31,13.30
2010,04,19,10,32,13.30
2010,04,19,10,33,13.40
2010,04,19,10,34,13.50
2010,04,19,10,35,13.60
2010,04,19,10,36,13.70
2010,04,19,10,37,13.80
2010,04,19,10,38,13.90
2010,04,19,10,39,14.00
2010,04,19,10,40,14.10
2010,04,19,10,41,14.10
2010,04,19,10,42,14.10
2010,04,19,10,43,14.20
2010,04,19,10,44,14.20
2010,04,19,10,45,14.30
2010,04,19,10,46,14.40
2010,04,19,10,47,14.50
2010,04,19,10,48,14.50
2010,04,19,10,49,14.60
2010,04,19,10,50,14.70
2010,04,19,10,51,14.70
2010,04,19,10,52,14.70
2010,04,19,10,53,14.80
2010,04,19,10,54,14.80
2010,04,19,10,55,14.80
2010,04,19,10,56,14.90
2010,04,19,10,57,14.90
2010,04,19,10,58,14.90
2010,04,19,10,59,15.00
2010,04,19,11,00,15.00
2010,04,19,11,01,15.00
2010,04,19,11,02,15.10
2010,04,19,11,03,15.10
2010,04,19,11,04,15.10
2010,04,19,11,05,15.20
2010,04,19,11,06,15.20
2010,04,19,11,07,15.20
2010,04,19,11,08,15.30
2010,04,19,11,09,15.30
2010,04,19,11,10,15.30
2010,04,19,11,11,15.30
2010,04,19,11,12,15.30
2010,04,19,11,13,15.30
2010,04,19,11,14,15.30
2010,04,19,11,15,15.30
2010,04,19,11,16,15.30
2010,04,19,11,17,15.30
2010,04,19,11,18,15.30
2010,04,19,11,19,15.30
2010,04,19,11,20,15.40
2010,04,19,11,21,15.40
2010,04,19,11,22,15.40
2010,04,19,11,23,15.50
2010,04,19,11,24,15.50
2010,04,19,11,25,15.60
2010,04,19,11,26,15.60
2010,04,19,11,27,15.60
2010,04,19,11,28,15.60
2010,04,19,11,29,15.60
2010,04,19,11,30,15.60
2010,04,19,11,31,15.70
2010,04,19,11,32,15.70
2010,04,19,11,33,15.70
2010,04,19,11,34,15.70
2010,04,19,11,35,15.80
2010,04,19,11,36,15.80
2010,04,19,11,37,15.70
2010,04,19,11,38,15.70
2010,04,19,11,39,15.70
2010,04,19,11,40,15.70
2010,04,19,11,41,15.70
2010,04,19,11,42,15.80
2010,04,19,11,43,15.80
2010,04,19,11,44,15.80
2010,04,19,11,45,15.90
2010,04,19,11,46,15.80
2010,04,19,11,47,15.80
2010,04,19,11,48,15.80
2010,04,19,11,49,15.80
2010,04,19,11,50,15.80
2010,04,19,11,51,15.80
2010,04,19,11,52,15.80
2010,04,19,11,53,15.80
2010,04,19,11,54,15.80
2010,04,19,11,55,15.70
2010,04,19,11,56,15.70
2010,04,19,11,57,15.60
2010,04,19,11,58,15.60
2010,04,19,11,59,15.60
2010,04,19,12,00,15.60
2010,04,19,12,01,15.60
2010,04,19,12,02,15.60
2010,04,19,12,03,15.60
2010,04,19,12,04,15.70
2010,04,19,12,05,15.70
2010,04,19,12,06,15.70
2010,04,19,12,07,15.80
2010,04,19,12,08,15.80
2010,04,19,12,09,15.80
2010,04,19,12,10,15.80
2010,04,19,12,11,15.80
2010,04,19,12,12,15.80
2010,04,19,12,13,15.80
2010,04,19,12,14,15.80
2010,04,19,12,15,15.80
2010,04,19,12,16,15.90
2010,04,19,12,17,15.90
2010,04,19,12,18,15.90
2010,04,19,12,19,16.00
2010,04,19,12,20,16.10
2010,04,19,12,21,16.10
2010,04,19,12,22,16.10
2010,04,19,12,23,16.10
2010,04,19,12,24,16.10
2010,04,19,12,25,16.10
2010,04,19,12,26,16.10
2010,04,19,12,27,16.10
2010,04,19,12,28,16.10
2010,04,19,12,29,16.10
2010,04,19,12,30,16.10
2010,04,19,12,31,16.10
2010,04,19,12,32,16.10
2010,04,19,12,33,16.10
2010,04,19,12,34,16.10
2010,04,19,12,35,16.10
2010,04,19,12,36,16.10
2010,04,19,12,37,16.10
2010,04,19,12,38,16.10
2010,04,19,12,39,16.10
2010,04,19,12,40,16.10
2010,04,19,12,41,16.10
2010,04,19,12,42,16.10
2010,04,19,12,43,16.10
2010,04,19,12,44,16.20
2010,04,19,12,45,16.20
2010,04,19,12,46,16.30
2010,04,19,12,47,16.30
2010,04,19,12,48,16.30
2010,04,19,12,49,16.40
2010,04,19,12,50,16.40
2010,04,19,12,51,16.40
2010,04,19,12,52,16.40
2010,04,19,12,53,16.40
2010,04,19,12,54,16.50
2010,04,19,12,55,16.60
2010,04,19,12,56,16.60
2010,04,19,12,57,16.70
2010,04,19,12,58,16.70
2010,04,19,12,59,16.70
2010,04,19,13,00,16.80
2010,04,19,13,01,16.80
2010,04,19,13,02,16.90
2010,04,19,13,03,17.00
2010,04,19,13,04,17.00
2010,04,19,13,05,17.10
2010,04,19,13,06,17.20
2010,04,19,13,07,17.30
2010,04,19,13,08,17.30
2010,04,19,13,09,17.30
2010,04,19,13,10,17.30
2010,04,19,13,11,17.30
2010,04,19,13,12,17.30
2010,04,19,13,13,17.30
2010,04,19,13,14,17.30
2010,04,19,13,15,17.30
2010,04,19,13,16,17.30
2010,04,19,13,17,17.40
2010,04,19,13,18,17.40
2010,04,19,13,19,17.50
2010,04,19,13,20,17.50
2010,04,19,13,21,17.60
2010,04,19,13,22,17.70
2010,04,19,13,23,17.80
2010,04,19,13,24,17.90
2010,04,19,13,25,17.90
2010,04,19,13,26,18.00
2010,04,19,13,27,18.10
2010,04,19,13,28,18.20
2010,04,19,13,29,18.30
2010,04,19,13,30,18.30
2010,04,19,13,31,18.40
2010,04,19,13,32,18.50
2010,04,19,13,33,18.50
2010,04,19,13,34,18.50
2010,04,19,13,35,18.60
2010,04,19,13,36,18.70
2010,04,19,13,37,18.70
2010,04,19,13,38,18.70
2010,04,19,13,39,18.70
2010,04,19,13,40,18.80
2010,04,19,13,41,18.80
2010,04,19,13,42,18.90
2010,04,19,13,43,18.90
2010,04,19,13,44,18.90
2010,04,19,13,45,18.90
2010,04,19,13,46,18.90
2010,04,19,13,47,18.90
2010,04,19,13,48,18.90
2010,04,19,13,49,18.90
2010,04,19,13,50,18.90
2010,04,19,13,51,18.90
2010,04,19,13,52,18.90
2010,04,19,13,53,18.90
2010,04,19,13,54,18.90
2010,04,19,13,55,18.90
2010,04,19,13,56,18.90
2010,04,19,13,57,18.90
2010,04,19,13,58,18.90
2010,04,19,13,59,18.90
2010,04,19,14,00,18.90
2010,04,19,14,01,18.90
2010,04,19,14,02,19.00
2010,04,19,14,03,19.10
2010,04,19,14,04,19.10
2010,04,19,14,05,19.10
2010,04,19,14,06,19.20
2010,04,19,14,07,19.30
2010,04,19,14,08,19.30
2010,04,19,14,09,19.40
2010,04,19,14,10,19.50
2010,04,19,14,11,19.60
2010,04,19,14,12,19.70
2010,04,19,14,13,19.70
2010,04,19,14,14,19.70
2010,04,19,14,15,19.70
2010,04,19,14,16,19.70
2010,04,19,14,17,19.70
2010,04,19,14,18,19.60
2010,04,19,14,19,19.70
2010,04,19,14,20,19.70
2010,04,19,14,21,19.70
2010,04,19,14,22,19.70
2010,04,19,14,23,19.60
2010,04,19,14,24,19.60
2010,04,19,14,25,19.70
2010,04,19,14,26,19.70
2010,04,19,14,27,19.70
2010,04,19,14,28,19.70
2010,04,19,14,29,19.80
2010,04,19,14,30,19.90
2010,04,19,14,31,19.90
2010,04,19,14,32,20.00
2010,04,19,14,33,20.10
2010,04,19,14,34,20.20
2010,04,19,14,35,20.20
2010,04,19,14,36,20.20
2010,04,19,14,37,20.30
2010,04,19,14,38,20.30
2010,04,19,14,39,20.40
2010,04,19,14,40,20.50
2010,04,19,14,41,20.50
2010,04,19,14,42,20.60
2010,04,19,14,43,20.70
2010,04,19,14,44,20.80
2010,04,19,14,45,20.90
2010,04,19,14,46,21.00
2010,04,19,14,47,21.00
2010,04,19,14,48,21.10
2010,04,19,14,49,21.20
2010,04,19,14,50,21.30
2010,04,19,14,51,21.30
2010,04,19,14,52,21.40
2010,04,19,14,53,21.40
2010,04,19,14,54,21.40
2010,04,19,14,55,21.40
2010,04,19,14,56,21.40
2010,04,19,14,57,21.40
2010,04,19,14,58,21.40
2010,04,19,14,59,21.40
2010,04,19,15,00,21.40
2010,04,19,15,01,21.30
2010,04,19,15,02,21.30
2010,04,19,15,03,21.30
2010,04,19,15,04,21.30
2010,04,19,15,05,21.30
2010,04,19,15,06,21.30
2010,04,19,15,07,21.30
2010,04,19,15,08,21.30
2010,04,19,15,09,21.30
2010,04,19,15,10,21.30
2010,04,19,15,11,21.30
2010,04,19,15,12,21.30
2010,04,19,15,13,21.30
2010,04,19,15,14,21.30
2010,04,19,15,15,21.20
2010,04,19,15,16,21.10
2010,04,19,15,17,21.00
2010,04,19,15,18,21.00
2010,04,19,15,19,20.90
2010,04,19,15,20,20.80
2010,04,19,15,21,20.70
2010,04,19,15,22,20.60
2010,04,19,15,23,20.60
2010,04,19,15,24,20.50
2010,04,19,15,25,20.50
2010,04,19,15,26,20.40
2010,04,19,15,27,20.40
2010,04,19,15,28,20.40
2010,04,19,15,29,20.40
2010,04,19,15,30,20.50
2010,04,19,15,31,20.50
2010,04,19,15,32,20.50
2010,04,19,15,33,20.50
2010,04,19,15,34,20.50
2010,04,19,15,35,20.50
2010,04,19,15,36,20.50
2010,04,19,15,37,20.50
2010,04,19,15,38,20.60
2010,04,19,15,39,20.50
2010,04,19,15,40,20.50
2010,04,19,15,41,20.40
2010,04,19,15,42,20.30
2010,04,19,15,43,20.20
2010,04,19,15,44,20.10
2010,04,19,15,45,20.10
2010,04,19,15,46,20.00
2010,04,19,15,47,19.90
2010,04,19,15,48,19.90
2010,04,19,15,49,19.90
2010,04,19,15,50,19.90
2010,04,19,15,51,19.90
2010,04,19,15,52,19.80
2010,04,19,15,53,19.70
2010,04,19,15,54,19.70
2010,04,19,15,55,19.60
2010,04,19,15,56,19.60
2010,04,19,15,57,19.50
2010,04,19,15,58,19.50
2010,04,19,15,59,19.50
2010,04,19,16,00,19.40
2010,04,19,16,01,19.40
2010,04,19,16,02,19.30
2010,04,19,16,03,19.30
2010,04,19,16,04,19.20
2010,04,19,16,05,19.20
2010,04,19,16,06,19.10
2010,04,19,16,07,19.10
2010,04,19,16,08,19.10
2010,04,19,16,09,19.10
2010,04,19,16,10,19.10
2010,04,19,16,11,18.90
2010,04,19,16,12,18.90
2010,04,19,16,13,18.90
2010,04,19,16,14,18.90
2010,04,19,16,15,18.90
2010,04,19,16,16,18.90
2010,04,19,16,17,18.80
2010,04,19,16,18,18.80
2010,04,19,16,19,18.80
2010,04,19,16,20,18.70
2010,04,19,16,21,18.70
2010,04,19,16,22,18.70
2010,04,19,16,23,18.60
2010,04,19,16,24,18.60
2010,04,19,16,25,18.60
2010,04,19,16,26,18.60
2010,04,19,16,27,18.60
2010,04,19,16,28,18.60
2010,04,19,16,29,18.50
2010,04,19,16,30,18.50
2010,04,19,16,31,18.50
2010,04,19,16,32,18.50
2010,04,19,16,33,18.50
2010,04,19,16,34,18.50
2010,04,19,16,35,18.50
2010,04,19,16,36,18.40
2010,04,19,16,37,18.40
2010,04,19,16,38,18.40
2010,04,19,16,39,18.30
2010,04,19,16,40,18.30
2010,04,19,16,41,18.20
2010,04,19,16,42,18.20
2010,04,19,16,43,18.20
2010,04,19,16,44,18.20
2010,04,19,16,45,18.20
2010,04,19,16,46,18.20
2010,04,19,16,47,18.10
2010,04,19,16,48,18.10
2010,04,19,16,49,18.10
2010,04,19,16,50,18.10
2010,04,19,16,51,18.00
2010,04,19,16,52,17.90
2010,04,19,16,53,17.90
2010,04,19,16,54,17.90
2010,04,19,16,55,17.90
2010,04,19,16,56,17.80
2010,04,19,16,57,17.80
2010,04,19,16,58,17.70
2010,04,19,16,59,17.70
2010,04,19,17,00,17.70
2010,04,19,17,01,17.70
2010,04,19,17,02,17.70
2010,04,19,17,03,17.70
2010,04,19,17,04,17.70
2010,04,19,17,05,17.70
2010,04,19,17,06,17.70
2010,04,19,17,07,17.70
2010,04,19,17,08,17.70
2010,04,19,17,09,17.70
2010,04,19,17,10,17.70
2010,04,19,17,11,17.70
2010,04,19,17,12,17.70
2010,04,19,17,13,17.70
2010,04,19,17,14,17.70
2010,04,19,17,15,17.70
2010,04,19,17,16,17.70
2010,04,19,17,17,17.70
2010,04,19,17,18,17.70
2010,04,19,17,19,17.70
2010,04,19,17,20,17.70
2010,04,19,17,21,17.70
2010,04,19,17,22,17.70
2010,04,19,17,23,17.70
2010,04,19,17,24,17.70
2010,04,19,17,25,17.70
2010,04,19,17,26,17.70
2010,04,19,17,27,17.70
2010,04,19,17,28,17.70
2010,04,19,17,29,17.70
2010,04,19,17,30,17.60
2010,04,19,17,31,17.60
2010,04,19,17,32,17.60
2010,04,19,17,33,17.60
2010,04,19,17,34,17.50
2010,04,19,17,35,17.50